Regional Weather Roundup
Issued by NWS

Home | Current Version | Previous Version | Graphics & Text | Print | Product List | Glossary On
Versions: 1 2 3 4 5 6 7 8 9 10 11 12 13 14 15 16 17 18 19 20 21 22 23 24 25 26 27 28 29 30 31 32 33 34 35 36 37 38 39 40 41 42 43 44 45 46 47 48 49 50
000
ASUS43 KIND 050209
RWRIN

WEATHER ROUNDUP FOR INDIANA
NATIONAL WEATHER SERVICE INDIANAPOLIS IN
1000 PM EDT FRI SEP 04 2015

NOTE: "FAIR" INDICATES FEW OR NO CLOUDS BELOW 12,000 FEET WITH NO
SIGNIFICANT WEATHER AND/OR OBSTRUCTIONS TO VISIBILITY.

* - STATION DOES NOT REPORT WEATHER SUCH AS PRECIPITATION OR FOG.

+ - STATION NOT QUALITY CONTROLLED BY THE NATIONAL WEATHER SERVICE.
    USE DATA WITH CAUTION...ESPECIALLY DEWPOINT AND RELATIVE
    HUMIDITY OBSERVATIONS.

INZ001>003-010>013-019-020-050300-
NORTHWEST INDIANA

CITY           SKY/WX    TMP DP  RH WIND       PRES   REMARKS
GARY /AIRPORT/ CLEAR     73  68  83 NE9       30.05R
KNOX *+        MOCLDY    70  70 100 S7        30.04R
LA PORTE +     PTCLDY    74  74 100 SW3       30.06R
MICHIGAN CITY+ PTCLDY    68  68 100 CALM      30.05F
MONTICELLO +   CLOUDY    72  70  95 CALM      30.05S
RENSSELAER +   MOCLDY    70  68  94 CALM      30.06R
VALPARAISO     PTCLDY    72  69  90 NE3       30.05R

$$

LMZ046-743>745-050300-
SOUTHERN LAKE MICHIGAN

STATION/POSITION TIME  TEMP    WIND        PRES    WAVE
                       AIR SEA DIR/SP/G            HT
                 (UTC) (F)     (DEG/KT/KT) (MB)    (FT)
BURNS HARBOR     0100   72      70/ 12/ 13 1017.3S
MICHIGAN CITY    0100   71      40/  9/  9   N/A
5NW MICH CITY    0200   72 74   80/  4/  6   N/A     1

$$

INZ004-005-014>016-021>024-050300-
NORTH CENTRAL INDIANA

CITY           SKY/WX    TMP DP  RH WIND       PRES   REMARKS
GOSHEN         MOCLDY    69  66  90 E3        30.06R
LOGANSPORT +   MOCLDY    66  61  82 CALM      30.07S
PERU/GRISSOM   MOCLDY    69  65  88 VRB2      30.06R
ROCHESTER +    MOCLDY    72  68  88 CALM      30.08R
SOUTH BEND     MOCLDY    72  69  90 N6        30.05S
WARSAW +       MOCLDY    68  64  88 SE3       30.07R

$$

INZ006>009-017-018-025>027-050300-
NORTHEAST INDIANA

CITY           SKY/WX    TMP DP  RH WIND       PRES   REMARKS
ANGOLA *+      CLEAR     70  70 100 CALM      30.08R
AUBURN +       MOCLDY    68  63  83 CALM      30.08R
FORT WAYNE     MOCLDY    68  65  90 SW8       30.08R
HUNTINGTON +   MOCLDY    66  62  85 E3        30.08R

$$

INZ028-029-035-036-043>045-051>053-050300-
WEST CENTRAL INDIANA

CITY           SKY/WX    TMP DP  RH WIND       PRES   REMARKS
CRAWFORDSVL +  CLOUDY    67  64  90 S6        30.07R
GREENCASTLE +  LGT RAIN  68  61  77 CALM      30.07F
LAFAYETTE      CLOUDY    72  64  76 SW3       30.06R
TERRE HAUTE    PTCLDY    77  62  59 N10       30.08R

$$

INZ030>032-037>040-046>048-054>057-064-065-050300-
CENTRAL INDIANA

CITY           SKY/WX    TMP DP  RH WIND       PRES   REMARKS
FRANKFORT +    CLOUDY   N/A N/A N/A SE3       30.07F
GREENWOOD *+   CLOUDY    72  63  73 S13       30.10R
INDIANAPOLIS   CLOUDY    75  66  73 E8        30.08R
-EAGLE CREEK   CLOUDY    74  70  87 SW3       30.07R
KOKOMO *+      MOCLDY    68  63  83 CALM      30.06S
MARION +       MOCLDY    66  58  74 SW5       30.07R
MT COMFORT *+  CLOUDY    68 N/A N/A S8        30.09R
SHELBYVILLE    CLOUDY    72  65  78 SW3       30.09R
ZIONSVILLE +   CLOUDY    71  66  84 CALM      30.08R

$$

INZ033-034-041-042-049-050-058-059-050300-
EAST CENTRAL INDIANA

CITY           SKY/WX    TMP DP  RH WIND       PRES   REMARKS
MUNCIE         CLOUDY    69  61  75 S5        30.07S

$$

INZ060-061-067>069-081>083-085>088-050300-
SOUTHWEST INDIANA

CITY           SKY/WX    TMP DP  RH WIND       PRES   REMARKS
EVANSVILLE     CLEAR     79  69  71 CALM      30.03R
HUNTINGBURG *+ CLEAR     75  66  73 NE5       30.05R
WASHINGTON +   CLEAR     75  67  77 CALM      30.04R

$$

INZ062-063-066-070>080-084-089>092-050300-
SOUTH CENTRAL AND SOUTHEAST INDIANA

CITY           SKY/WX    TMP DP  RH WIND       PRES   REMARKS
BLOOMINGTON    MOCLDY    81  70  69 E13       30.09R
MADISON *+     MOCLDY    72  63  73 E17G23    30.13S
NORTH VERNON + CLOUDY    72  72 100 SE7       30.10R
SEYMOUR +      PTCLDY    73  64  73 E7        30.08R

$$




USA.gov is the U.S. government's official web portal to all federal, state and local government web resources and services.